Regional Weather Roundup
Issued by NWS Jackson, KY

Home | Current Version | Previous Version | Text Only | Print | Product List | Glossary Off
Versions: 1 2 3 4 5 6 7 8 9 10 11 12 13 14 15 16 17 18 19 20 21 22 23 24 25 26 27 28 29 30 31 32 33 34 35 36 37 38 39 40 41 42 43 44 45 46 47 48 49 50

000
ASUS43 KJKL 250411
RWRJKL

EAST KENTUCKY HOURLY WEATHER ROUNDUP
NATIONAL WEATHER SERVICE JACKSON KY
1100 PM EST SAT JAN 24 2015

NOTE: "FAIR" INDICATES FEW OR NO CLOUDS BELOW 12,000 FEET WITH
NO SIGNIFICANT WEATHER AND/OR OBSTRUCTIONS TO VISIBILITY.

* THESE REPORTS ARE NOT UNDER NWS QUALITY CONTROL AND MAY NOT
  REPORT WEATHER SUCH AS PRECIPITATION AND FOG.

KYZ079-080-083-085-087-088-110-112-115-119-120-250500
...EASTERN KENTUCKY...

CITY           SKY/WX    TMP DP  RH WIND       PRES   REMARKS
JACKSON        CLEAR     32  29  88 SW5       29.85S WCI  27
LONDON         CLEAR     30  25  81 CALM      29.87F HAZE
SOMERSET*      CLEAR     30  30 100 CALM      29.89F FOG
MONTICELLO*    CLEAR     33  29  86 CALM      29.91S
MIDDLESBORO*   CLEAR     29  28  94 CALM      29.91S
HARLAN APT*    CLEAR     34  28  80 E7        29.88S WCI  28
HAZARD APT*    PTCLDY    36  32  87 SW7       29.87  WCI  30
BLACK MTN*       N/A     27  27 100 SW1         N/A
PIKEVILLE APT* PTCLDY    34  30  86 SW5       29.86S WCI  30
BIG SANDY*     CLEAR     34  31  89 SW5       29.86S WCI  30
MOREHEAD APT*  PTCLDY    34  30  86 SW8       29.85F WCI  27
$$

KYZ035-036-041-042-044-050-067-078-099-250500
...CENTRAL KENTUCKY...

CITY           SKY/WX    TMP DP  RH WIND       PRES   REMARKS
MT STERLING*   CLEAR     32  32 100 SW8       29.85F WCI  25
FLEMING/MASON* CLEAR     30  28  93 S8        29.83F FOG     WCI  22
DANVILLE*      CLEAR     32  32 100 S8        29.85F WCI  25
RICHMOND*      CLEAR     34  30  86 S8        29.84F WCI  27
LEXINGTON      CLEAR     31  28  89 S9        29.82F WCI  23
FRANKFORT      CLEAR     32  28  85 S7        29.81F WCI  26
$$

KYZ091>093-OHZ055-061-077-WVZ005-015-034-035-042-250500
...SOUTHERN OHIO/WEST VIRGINIA...

CITY           SKY/WX    TMP DP  RH WIND       PRES   REMARKS
COVINGTON      MOCLDY    33  27  78 S10       29.78F WCI  25
COLUMBUS       CLOUDY    35  28  75 SW9       29.75F WCI  28
DAYTON         CLOUDY    36  29  75 SW10      29.75S WCI  28
WILMINGTON     CLOUDY    33  27  78 SW8       29.76F WCI  26
HUNTINGTON     MOCLDY    33  31  92 SW5       29.84S FOG     WCI  29
CHARLESTON     MOCLDY    35  30  82 W12       29.84R WCI  27
PINEVILLE*     CLOUDY    36  32  87 MISG      29.88R
BECKLEY        CLOUDY    30  26  85 W15       29.78R WCI  19
BLUEFIELD      CLOUDY    31  26  82 NW15G28   29.78R WCI  20
$$

VAZ002-007-008-TNZ017-027-036-066-071-250500
...SOUTHWEST VIRGINIA/EAST TENNESSEE...

CITY           SKY/WX    TMP DP  RH WIND       PRES   REMARKS
WISE*          CLOUDY    34  28  80 W6        29.84S WCI  29
JONESVILLE*    PTCLDY    36  27  69 W6        29.91S WCI  31
ABINGDON*      CLOUDY    34  29  83 W7        29.86S WCI  28
BRISTOL        CLOUDY    36  27  69 SW7       29.90R WCI  30
KNOXVILLE      CLEAR     33  26  75 SW10      29.93F WCI  25
OAK RIDGE      CLEAR     33  28  81 CALM      29.95R
CROSSVILLE     CLEAR     33  27  78 SW5       29.90F WCI  29
NASHVILLE      CLEAR     37  31  78 S7        29.90F WCI  32
$$

...KEY TO REMARKS...
VSB - VISIBILITY IN MILES
WCI - WIND CHILL INDEX
HX  - HEAT INDEX

$$


USA.gov is the U.S. government's official web portal to all federal, state and local government web resources and services.